En Direct

LFST 010700Z AUTO 22005KT 190V250 9999 BKN006 BKN072 OVC100 16/15 Q1011 BECMG FEW040 BKN060


TAF AMD LFST 010526Z 0106/0206 18008KT 9999 FEW040 BKN060 PROB30 TEMPO 0106/0108 BKN005 TEMPO 0109/0206 4000 SHRA SCT050CB PROB40 TEMPO 0110/0116 20015G25KT 2000 TSRA

Nos Avions

7 avions disponibles et entretenus par un atelier agréé, permettant tous types de vols (formation, promenade, voyage…)

l'école de pilotage

PPL, LAPL, Vol de nuit, SEP… Toutes ces formations sont dispensées par nos instructeurs bénévoles.
Formation Théorique Mermoz via la FFA

Notre Plateforme

Nous sommes basés à l’aéroport de Strasbourg-Entzheim (LFST) en plein coeur de l’Alsace qui permet de voyager rapidement outre Rhin, mais également de profiter des paysages variés

Nos réseaux

Suivez-nous sur les réseaux sociaux